CAPE
1430 1579 1586 1635 1858 1630 955 1249 2053 2270 2113 1684 1391 1444 1255 2055 2264 2417 2339 2422 2422 1677 2046 1687 1788 1787 1202 640 131 101 0 0 0 1 1 0 0 0 0 0 0 0 1
1317 1523 1660 1753 1892 1913 1724 971 1408 1716 1592 1697 1549 1700 2187 2783 2585 2776 2343 2398 1514 1944 1789 1612 1187 1131 1008 513 133 16 0 0 0 0 1 0 0 0 0 0 0 0 0
1368 1430 1538 1397 1802 1792 1847 1747 1582 1493 1310 1405 2007 2281 2619 2895 2734 2955 2515 1795 1649 1911 1290 914 556 311 1041 566 55 0 0 0 0 0 1 0 0 0 0 1 0 0 0
1455 1388 1429 1388 1530 1608 1800 1906 1960 1852 1958 2069 2222 2898 3249 3105 3017 2289 1932 1116 1903 1198 1180 716 249 397 672 416 35 0 0 0 0 0 0 0 0 0 0 0 0 0 0
1399 1465 1389 1523 1594 1659 1701 1948 2205 2199 2245 2509 2840 3034 2959 2641 1742 1486 777 1653 1189 1287 881 374 171 447 528 217 2 0 0 0 0 0 0 0 0 0 0 0 0 0 0
1581 1620 1544 1811 1707 1758 1737 1871 2224 2384 2425 2787 2897 3301 2526 1618 827 529 425 1549 1244 918 553 275 95 87 92 2 0 0 0 0 0 0 0 0 0 0 0 0 0 0 0
2624 2264 2067 1875 1974 2045 2045 2035 2036 2390 3112 2762 3091 2965 2157 1055 341 333 454 1097 919 457 304 220 40 0 0 0 0 0 0 0 0 2 0 0 0 0 0 0 0 6 11
3294 3377 3077 2702 2268 2489 2526 2473 2411 2599 2912 2882 3271 2667 1470 717 350 70 391 984 424 231 246 154 19 0 0 0 0 0 0 0 0 0 0 0 0 0 0 0 0 4 4
2597 2828 2802 3375 3310 2776 2746 2716 2720 2894 3074 3359 3307 2270 1334 679 108 0 219 970 387 122 6 8 43 0 0 0 0 0 0 0 0 0 0 0 0 0 0 0 0 0 0
1457 1942 2152 2513 3106 3360 3238 3126 3114 3307 3648 3657 2841 1779 970 548 0 0 0 961 418 32 0 0 0 0 0 0 0 0 0 0 0 0 0 0 0 0 0 0 0 0 2
958 978 691 2369 2321 2642 3279 3587 3485 3386 3311 2973 2076 1080 553 145 0 0 0 283 637 43 0 0 0 0 0 0 0 0 0 0 0 0 0 0 0 0 0 0 0 6 22
23 668 692 2362 2157 2279 2476 2536 2534 2745 2901 1951 1709 831 219 0 0 0 0 5 233 150 0 0 0 0 0 0 0 0 0 0 0 0 0 0 0 0 0 0 0 9 31
61 29 131 1265 1690 1421 1421 1018 1210 1481 595 537 1133 628 377 8 0 0 0 0 8 33 0 0 0 0 0 0 0 0 0 0 0 0 0 0 0 0 0 0 0 0 0
15 0 0 628 1107 504 339 209 151 4 0 14 388 370 206 0 0 0 0 0 0 0 0 0 0 0 0 0 0 0 0 0 0 0 0 0 0 0 0 0 0 0 0
12 0 0 262 1150 48 0 10 12 0 0 0 12 216 259 27 0 0 0 0 0 0 0 0 0 0 0 0 0 0 0 0 0 0 0 0 0 0 0 0 0 0 0
29 85 0 122 518 0 0 0 0 0 0 0 0 2 0 35 0 0 0 0 0 0 0 0 0 0 1 0 0 3 0 0 0 0 0 0 0 0 0 0 0 0 0
14 132 0 7 611 21 0 0 0 1 0 0 0 0 0 0 0 0 0 0 0 0 0 0 0 0 0 0 1 0 0 0 0 0 0 0 0 0 0 0 0 0 0
183 234 54 0 256 160 0 0 0 0 0 0 0 0 0 0 0 0 0 0 0 0 0 0 1 0 0 0 0 1 1 0 0 0 0 0 5 1 0 0 0 0 1
285 116 90 68 161 130 21 1 0 0 0 0 0 0 0 0 0 0 0 0 0 0 0 0 0 0 0 0 0 0 0 1 1 0 0 0 0 0 0 1 1 1 0
102 164 83 45 79 142 72 0 0 0 0 0 0 0 0 0 0 0 0 0 0 0 0 0 0 0 0 0 0 0 0 0 0 0 0 0 0 0 0 0 0 4 4
258 161 66 11 2 21 48 66 0 0 0 0 0 0 0 0 0 0 0 0 0 0 0 0 0 0 0 0 0 0 0 0 0 0 0 0 0 0 0 0 1 0 1
153 169 9 34 14 2 0 0 0 0 0 0 0 0 0 0 0 0 0 0 0 0 0 0 0 0 0 0 0 0 0 0 0 0 0 0 0 0 0 0 0 0 0
61 44 52 126 66 4 2 0 0 0 0 0 0 0 0 0 0 0 0 0 0 0 0 0 0 0 0 0 0 0 0 0 0 0 0 0 0 0 0 0 0 0 0
3 2 9 10 2 2 0 0 0 0 0 0 0 0 0 0 0 0 0 0 0 0 0 0 0 0 0 0 0 0 0 0 0 0 0 0 0 0 0 0 0 0 0
1 0 1 1 2 1 0 0 0 0 0 0 0 0 0 0 0 0 0 0 0 0 0 0 0 0 0 0 0 0 0 0 0 0 0 0 0 0 0 0 0 0 0
1 2 2 2 3 1 0 0 0 0 0 0 0 0 0 0 0 0 0 0 0 0 0 0 0 0 0 0 0 0 0 0 0 0 0 0 0 0 0 0 0 0 0
CIN
-205 -201 -202 -195 -160 -143 -169 -122 -61 -49 -42 -49 -67 -71 -85 -65 -46 -27 -24 -15 -8 -23 -6 -12 -5 -4 -26 -80 -185 -125 0 0 0 0 -13 0 0 0 0 0 0 0 -6
-211 -207 -204 -214 -194 -164 -151 -180 -108 -79 -74 -64 -73 -72 -58 -42 -32 -14 -34 -28 -51 -19 -16 -32 -52 -48 -55 -87 -172 -214 0 0 0 0 -6 0 0 0 0 0 0 0 0
-255 -226 -226 -214 -209 -205 -175 -154 -136 -116 -118 -89 -67 -62 -47 -26 -25 -17 -37 -47 -47 -25 -70 -124 -169 -233 -52 -86 -246 0 0 0 0 0 -1 0 0 0 0 -4 0 0 0
-276 -240 -230 -227 -211 -207 -193 -168 -134 -126 -103 -89 -72 -38 -21 -8 -18 -70 -62 -109 -40 -87 -96 -153 -287 -219 -105 -129 -251 0 0 0 0 0 0 0 0 0 0 0 0 0 0
-198 -230 -228 -220 -210 -198 -193 -179 -146 -126 -107 -79 -45 -31 -16 -55 -104 -99 -128 -78 -88 -83 -137 -239 -328 -187 -132 -203 -155 0 0 0 0 0 0 0 0 0 0 0 0 0 0
-140 -173 -232 -209 -207 -196 -179 -168 -147 -128 -110 -68 -54 -14 -64 -147 -242 -253 -251 -79 -92 -115 -184 -270 -365 -347 -311 -266 0 0 0 0 0 0 0 0 0 0 0 0 -1 -2 0
-37 -90 -164 -191 -179 -184 -172 -163 -150 -136 -77 -79 -46 -33 -113 -233 -400 -354 -268 -125 -120 -188 -247 -274 -390 0 0 0 0 0 0 0 0 -7 0 0 0 0 0 0 0 -46 -42
-44 -19 -29 -81 -123 -133 -134 -124 -130 -117 -90 -81 -34 -86 -216 -333 -448 -552 -328 -146 -219 -269 -235 -289 -195 0 0 0 0 0 0 0 0 -10 0 0 0 0 0 0 0 -37 -43
-77 -63 -78 -16 -24 -51 -73 -87 -98 -93 -79 -32 -34 -137 -236 -304 -513 -48 -412 -130 -206 -337 -94 -61 -312 0 0 0 0 0 0 0 0 0 0 0 0 0 0 0 0 0 0
-162 -109 -92 -59 -18 -8 -23 -53 -57 -37 -24 -23 -73 -171 -279 -299 0 0 0 -99 -185 -349 0 0 -3 0 0 0 0 0 0 0 0 0 0 0 0 0 0 0 0 -4 -12
-155 -188 -260 -61 -41 -34 -7 -11 -15 -14 -15 -33 -120 -211 -309 -416 0 0 0 -295 -146 -361 0 0 0 0 0 0 0 0 0 0 0 0 0 0 0 0 0 0 0 -49 -27
-487 -159 -183 -41 -69 -44 -29 -15 -12 -4 -15 -82 -117 -212 -398 0 0 0 0 -20 -304 -311 -20 0 0 0 0 0 0 0 0 0 0 0 0 0 0 0 0 0 0 -19 -24
-334 -378 -266 -101 -70 -109 -99 -158 -125 -9 -176 -99 -127 -201 -279 -458 0 0 0 0 -174 -389 0 0 0 0 0 0 0 0 0 0 0 0 0 0 0 0 0 0 0 0 -1
-344 0 0 -108 -91 -169 -279 -315 -328 -227 0 -13 -46 -128 -256 0 0 0 0 0 0 0 0 0 0 0 0 0 0 0 0 0 0 0 0 0 0 0 0 0 0 0 0
-199 0 0 -88 -19 -152 0 -201 -200 0 0 0 -33 -28 -71 -202 0 0 0 0 0 0 0 0 0 0 0 0 0 0 0 0 0 -2 0 0 0 0 0 0 0 0 0
-180 -97 0 -81 -41 0 0 0 0 0 0 0 0 -86 0 -216 0 0 0 0 0 0 0 0 0 0 -6 0 0 -30 0 0 0 0 0 0 0 0 0 0 0 0 0
-16 -44 0 -111 -6 -78 0 0 0 0 0 0 0 0 0 0 0 0 0 0 0 0 -1 0 0 0 0 0 -27 0 0 0 0 0 0 0 0 0 0 0 0 0 -12
-21 -13 -73 0 -61 -83 0 0 0 0 0 0 0 0 0 0 0 0 0 0 0 0 0 0 -5 0 0 0 0 0 0 0 0 0 0 -84 -99 -22 -17 0 0 0 -28
-12 -28 -59 -24 -74 -111 -86 0 0 0 0 0 0 0 0 0 0 0 0 0 0 0 0 0 0 0 0 0 0 0 0 0 0 0 0 0 0 0 0 -45 -56 -27 0
-21 -28 -56 -32 -32 -126 -167 0 0 0 0 0 0 0 0 0 0 0 0 0 0 0 0 0 0 0 -9 0 0 0 0 0 0 0 0 0 0 0 0 0 0 -100 -67
-39 -25 -26 -5 -16 -114 -210 -169 0 0 0 0 0 0 0 0 0 0 0 0 0 0 0 0 0 0 0 0 0 0 0 0 0 0 0 0 0 0 0 0 0 0 0
-72 -32 -57 -73 -95 0 0 0 0 0 0 0 0 0 0 0 0 0 0 0 0 0 0 0 0 0 0 0 0 0 0 0 0 0 0 0 0 0 0 0 0 0 0
-131 -78 -115 -51 -83 -34 0 0 0 0 0 0 0 0 0 0 0 0 0 0 0 0 0 0 0 0 0 0 0 0 0 0 0 0 0 0 0 0 0 0 0 0 0
-37 -21 -216 -57 -31 -11 0 -1 0 0 0 0 0 0 0 0 0 0 0 0 0 0 0 0 0 0 0 0 0 0 0 0 0 0 0 0 0 0 0 0 0 0 0
0 0 0 0 0 0 0 0 0 0 0 0 0 0 0 0 0 0 0 0 0 0 0 0 0 0 0 0 0 0 0 0 0 0 0 0 0 0 0 0 0 0 0
0 0 0 0 0 0 0 0 0 0 0 0 0 0 0 0 0 0 0 0 0 0 0 0 0 0 0 0 0 0 0 0 0 0 0 0 0 0 0 0 0 0 0
Wind_Speed
13 11 9 9 10 10 11 11 7 4 2 3 6 7 8 10 8 10 9 7 17 16 18 18 20 19 22 21 20 19 18 20 20 20 20 20 21 22 23 23 22 23 21
12 11 11 10 11 12 13 14 13 10 7 4 2 4 5 7 6 9 13 18 18 19 20 23 24 23 21 20 20 19 19 19 20 21 21 21 22 23 23 23 24 22 21
9 10 8 10 10 11 12 13 14 15 14 10 8 7 7 6 5 10 15 19 18 20 21 23 24 24 22 20 20 20 20 20 21 22 22 22 22 22 22 22 23 23 23
7 8 8 8 10 10 11 11 14 16 16 13 11 7 8 5 10 14 17 19 19 20 20 23 24 23 21 20 20 20 22 22 22 22 22 22 22 21 22 23 23 22 22
10 9 9 8 6 7 8 11 12 13 14 11 7 5 3 6 13 14 16 17 18 19 19 21 24 23 20 20 20 21 22 23 23 22 21 21 20 21 21 21 22 23 22
13 13 11 9 8 7 7 8 9 11 11 8 4 2 2 6 10 12 14 16 16 17 18 20 22 21 20 20 21 22 22 23 22 22 20 20 20 20 21 23 23 24 21
13 9 15 14 12 11 9 9 9 9 7 6 4 3 4 7 9 11 12 13 13 16 17 17 20 20 20 21 22 22 22 20 19 19 20 19 20 20 22 22 22 22 19
28 26 19 15 17 16 14 13 13 13 11 10 8 5 2 5 6 8 9 9 10 14 15 15 17 18 19 20 20 21 20 19 18 17 16 18 19 21 21 21 22 20 20
32 33 33 33 20 20 19 17 16 16 16 14 12 9 8 9 7 6 6 7 10 12 14 14 14 15 16 17 17 18 19 20 21 20 20 20 19 21 22 23 21 22 22
35 37 37 38 34 24 22 21 21 20 20 18 16 13 11 11 10 10 7 6 7 11 14 14 13 13 15 15 15 15 17 18 20 22 22 22 22 21 21 21 23 23 20
37 38 39 39 36 36 30 26 24 23 22 20 18 15 13 13 12 10 10 7 5 8 10 11 12 12 13 14 13 13 14 16 18 20 21 20 20 20 20 20 22 20 20
39 40 39 38 38 39 39 38 33 29 26 24 20 17 15 11 11 10 9 7 6 5 8 9 10 10 12 13 12 13 14 15 16 18 20 18 18 19 19 19 19 19 17
40 41 41 40 38 35 31 31 34 33 35 34 21 19 18 14 13 12 10 9 9 6 8 8 8 9 11 12 12 12 13 14 15 16 16 17 18 19 18 17 16 17 18
41 42 42 41 36 30 27 28 25 29 34 35 17 21 22 20 18 13 12 11 8 7 7 7 7 8 10 11 11 11 13 12 12 12 13 15 15 16 16 17 16 16 14
40 41 42 41 35 30 30 32 30 27 23 19 31 21 23 22 23 18 15 11 11 8 6 6 7 7 8 10 9 8 8 10 9 8 10 13 14 14 14 15 15 15 15
42 40 40 40 32 28 27 28 25 21 18 15 13 12 21 15 15 17 16 13 10 7 8 5 5 5 6 7 7 8 9 10 9 9 9 9 12 12 11 12 12 12 13
43 38 38 38 31 27 25 23 21 18 12 8 12 12 12 10 10 15 13 13 15 14 12 10 7 6 7 7 7 8 9 11 11 9 9 9 8 6 8 8 8 9 10
36 32 34 36 30 26 22 20 18 18 15 11 10 9 8 7 7 18 17 15 16 17 7 9 8 6 6 6 7 9 12 13 13 12 11 11 11 12 12 7 3 4 6
35 35 34 33 32 24 21 18 17 16 13 7 6 6 7 11 14 12 11 6 9 15 6 4 7 7 6 6 7 9 13 15 15 15 14 15 15 14 14 17 18 19 17
35 34 32 32 30 24 19 18 17 16 15 15 12 12 10 14 14 19 11 8 17 14 4 5 5 7 7 6 6 8 11 13 15 17 16 16 17 16 16 18 19 20 21
35 31 30 32 27 23 18 15 15 16 17 20 22 17 11 12 11 9 9 13 9 7 7 5 6 7 7 7 8 9 9 12 14 17 18 17 17 17 17 18 20 20 22
31 32 32 30 23 19 15 13 12 12 12 13 14 16 12 14 14 10 9 11 10 9 8 8 7 8 8 11 11 11 10 12 15 18 20 20 19 19 18 18 20 21 22
30 30 31 25 17 14 12 10 9 10 11 11 10 12 18 14 13 14 10 10 10 10 10 10 9 9 10 11 10 9 10 13 17 19 21 21 21 22 22 22 23 24 25
26 25 23 17 12 9 8 6 5 5 5 8 12 15 16 17 11 10 9 10 11 12 12 11 11 10 9 9 9 10 12 14 17 18 19 21 21 22 23 23 24 26 27
17 16 14 9 5 3 4 2 3 3 5 7 8 11 11 12 14 12 12 11 11 10 10 10 10 9 7 7 10 12 14 15 15 17 18 20 21 22 22 23 24 26 27
11 10 8 6 2 4 2 3 5 3 4 9 11 9 10 8 11 11 8 12 13 10 11 11 8 6 6 9 11 12 13 14 15 16 18 19 20 22 23 24 26 27 28
Wind_Direction
157 155 157 164 173 178 184 182 170 151 125 60 25 28 39 37 72 61 69 74 42 43 44 48 47 49 46 51 56 58 59 52 51 58 70 69 61 60 67 66 69 70 68
157 156 159 158 166 177 183 189 189 185 176 159 63 70 107 65 96 54 38 31 33 37 38 37 40 42 46 55 57 61 61 59 63 68 79 76 71 73 84 83 85 80 78
159 162 161 165 166 175 180 185 186 189 187 179 164 157 152 143 104 35 24 18 31 32 33 36 37 39 48 57 59 60 65 65 74 80 81 84 81 86 88 95 100 95 103
195 187 181 176 179 179 180 180 185 184 180 175 173 162 176 164 13 7 4 13 23 27 34 35 36 42 54 60 60 66 69 72 77 83 84 87 89 98 95 97 97 109 117
221 221 215 205 196 191 189 185 183 184 184 179 176 169 145 17 352 360 6 10 19 27 32 34 36 44 58 63 65 72 75 78 79 84 90 91 95 105 107 118 108 112 129
242 233 246 245 242 232 220 210 198 194 191 190 199 200 14 5 6 360 7 9 18 24 29 34 36 44 55 63 70 77 83 87 82 81 95 96 102 116 120 125 119 115 137
315 286 274 263 256 254 254 254 239 230 233 230 243 213 338 348 359 4 6 14 27 23 28 39 38 46 57 67 76 78 79 81 82 85 95 105 107 117 117 130 131 129 145
309 305 298 276 263 268 267 265 268 267 258 244 243 245 274 339 355 1 10 19 30 28 34 40 46 53 62 71 77 80 76 79 82 87 106 112 108 115 123 124 137 140 147
305 304 301 294 278 269 267 267 266 263 260 263 267 271 289 311 332 350 5 13 18 26 27 36 50 57 67 72 78 82 78 69 67 71 94 111 101 108 115 120 121 126 128
303 301 300 296 288 278 267 264 268 269 270 267 269 268 280 299 313 319 339 1 10 13 17 27 43 61 67 67 80 89 83 79 71 74 80 93 97 97 108 122 126 128 138
303 303 301 296 294 283 278 272 268 267 264 257 257 260 275 296 303 312 318 328 356 14 21 26 37 57 62 62 86 95 91 88 80 80 83 88 102 107 105 111 133 145 155
302 302 302 301 296 290 283 280 277 269 257 246 242 256 272 282 291 305 318 346 356 10 15 24 37 52 60 58 81 99 94 93 86 90 92 89 99 116 122 114 113 137 169
302 301 300 299 301 301 295 291 286 281 294 227 227 255 268 277 284 296 306 319 333 1 11 17 39 48 56 55 65 93 99 103 100 97 104 98 100 110 121 122 102 91 112
299 300 299 298 299 304 300 293 292 284 290 328 281 273 277 277 283 295 299 308 325 340 2 15 30 41 42 39 48 78 104 104 107 113 120 121 107 108 110 114 110 108 95
296 298 299 298 296 298 296 294 291 287 288 270 303 290 274 274 280 287 291 297 310 322 356 5 7 20 27 47 50 63 88 137 129 72 103 114 114 108 101 105 110 110 107
292 296 299 298 299 297 297 298 304 297 298 265 248 235 258 272 285 280 282 288 302 314 325 340 354 6 8 24 27 9 9 355 349 10 25 84 109 108 95 95 89 100 119
288 293 298 298 297 294 294 294 291 304 308 267 258 251 242 242 255 270 279 289 292 298 302 309 321 341 355 1 1 348 347 332 328 329 342 346 351 17 101 104 98 90 94
290 292 297 298 296 293 288 285 284 280 274 272 269 232 205 214 246 260 274 290 276 287 299 302 312 329 355 5 347 336 318 316 316 313 316 315 320 317 323 346 40 36 14
288 290 295 296 297 292 286 280 281 282 275 265 233 251 264 272 263 265 276 281 271 279 284 305 312 321 345 29 17 343 315 310 307 302 303 304 302 309 307 302 301 300 307
288 290 292 293 291 291 283 281 273 267 262 256 252 249 262 266 262 255 262 258 270 266 260 298 307 326 339 356 2 352 324 317 307 302 302 304 302 303 301 300 298 300 301
288 290 292 289 285 280 280 273 273 271 263 255 257 262 251 256 256 239 251 267 266 259 275 288 309 324 329 338 338 335 329 314 308 301 301 304 305 304 306 304 298 297 294
287 288 289 285 280 277 271 270 262 262 261 261 264 260 249 259 251 236 240 255 266 281 288 296 318 333 339 325 322 325 318 314 305 298 296 297 300 302 306 306 304 304 301
287 289 282 282 276 272 267 258 262 262 255 250 242 241 255 245 243 244 246 257 271 278 287 294 301 315 326 330 334 331 321 311 300 299 297 297 298 300 303 303 303 300 299
281 283 289 286 273 262 255 258 260 231 239 244 244 246 244 249 254 261 264 268 272 278 278 287 295 309 323 330 325 327 316 308 303 303 304 302 304 306 307 307 305 304 303
306 303 306 295 264 261 234 176 173 253 267 259 236 236 239 248 258 267 273 272 269 272 278 290 301 313 324 320 313 317 313 311 310 311 311 309 311 313 313 312 311 309 306
335 333 321 306 287 152 114 165 110 297 286 264 252 253 243 241 247 263 278 261 266 272 276 290 306 317 325 310 311 315 317 317 317 318 316 315 317 318 318 318 317 314 310